CW4517 Weather Reports


time (UTC)temp
C
wind
direction
speed
KPH
gust
KPH
rain 1hr
cm
rain 24hr
cm
rain mn
cm
humidity
%
barometer
mb
20260905053103 26 217 1.6 6.4 0.00 0.00 0.00 85 1009.7
20260905052557 26 221 0.0 4.8 0.00 0.00 0.00 85 1009.6
20260905052309 26 221 3.2 6.4 0.00 0.00 0.00 85 1009.6
20260905052033 27 228 3.2 6.4 0.00 0.00 0.00 85 1009.6
20260905051040 27 215 4.8 8.0 0.00 0.00 0.00 85 1009.2
20260905050534 27 236 4.8 9.7 0.00 0.00 0.00 84 1009.2
20260905050024 27 226 3.2 9.7 0.00 0.00 0.00 84 1009.2
20260905045523 27 211 1.6 8.0 0.00 0.00 0.00 84 1009.5
20260905045017 27 232 1.6 4.8 0.00 0.00 0.00 83 1009.5
20260905044513 27 232 1.6 4.8 0.00 0.00 0.00 83 1009.5
20260905044006 27 231 1.6 4.8 0.00 0.00 0.00 82 1009.7
20260905043456 27 239 1.6 3.2 0.00 0.00 0.00 82 1009.7
20260905043212 28 240 3.2 8.0 0.00 0.00 0.00 81 1009.6
20260905042448 28 240 3.2 8.0 0.00 0.00 0.00 81 1009.6
20260905041943 28 229 3.2 6.4 0.00 0.00 0.00 81 1009.6
20260905041436 28 226 3.2 6.4 0.00 0.00 0.00 80 1009.7
20260905040925 28 224 3.2 6.4 0.00 0.00 0.00 80 1009.7
20260905040423 28 231 3.2 6.4 0.00 0.00 0.00 80 1009.7
20260905035918 28 225 1.6 6.4 0.00 0.00 0.00 80 1009.8
20260905035411 28 231 0.0 6.4 0.00 0.00 0.00 79 1009.8
20260905034906 28 228 0.0 0.0 0.00 0.00 0.00 79 1009.8
20260905034352 28 228 0.0 0.0 0.00 0.00 0.00 78 1010.1
20260905033847 28 228 0.0 0.0 0.00 0.00 0.00 78 1010.1
20260905033348 28 228 0.0 0.0 0.00 0.00 0.00 78 1010.1
20260905032842 28 228 0.0 0.0 0.00 0.00 0.00 78 1010.2
20260905032552 28 228 0.0 0.0 0.00 0.00 0.00 79 1010.2
20260905031830 28 228 0.0 0.0 0.00 0.00 0.00 79 1010.2
20260905031543 28 228 0.0 0.0 0.00 0.00 0.00 80 1010.1
20260905030809 28 228 0.0 0.0 0.00 0.00 0.00 80 1010.1
20260905030311 28 228 0.0 0.0 0.00 0.00 0.00 80 1010.1
20260905025806 28 228 0.0 0.0 0.00 0.00 0.00 80 1009.8
20260905025258 28 228 0.0 0.0 0.00 0.00 0.00 80 1009.8
20260905024754 28 227 0.0 0.0 0.00 0.00 0.00 80 1009.8
20260905024241 28 227 0.0 0.0 0.00 0.00 0.00 80 1009.8
20260905023740 28 227 0.0 0.0 0.00 0.00 0.00 80 1009.8
20260905023236 28 227 0.0 0.0 0.00 0.00 0.00 80 1009.8
20260905022953 28 227 0.0 0.0 0.00 0.00 0.00 80 1009.7
20260905022223 28 227 0.0 0.0 0.00 0.00 0.00 79 1009.7
20260905021938 28 227 0.0 0.0 0.00 0.00 0.00 79 1009.7
20260905021210 28 227 0.0 0.0 0.00 0.00 0.00 79 1009.7
20260905020922 28 227 0.0 0.0 0.00 0.00 0.00 78 1009.7
20260905020159 29 227 0.0 0.0 0.00 0.00 0.00 79 1009.7
20260905015654 29 227 0.0 0.0 0.00 0.00 0.00 78 1009.7
20260905015146 29 227 0.0 0.0 0.00 0.00 0.00 78 1009.7
20260905014854 29 227 0.0 0.0 0.00 0.00 0.00 79 1009.7
20260905014124 29 227 0.0 0.0 0.00 0.00 0.00 78 1009.3
20260905013627 29 227 0.0 0.0 0.00 0.00 0.00 78 1009.3
20260905013124 29 227 0.0 0.0 0.00 0.00 0.00 78 1009.3
20260905012625 29 227 0.0 0.0 0.00 0.00 0.00 78 1009.2
20260905012123 29 227 0.0 0.0 0.00 0.00 0.00 78 1009.2
20260905011850 29 227 0.0 0.0 0.00 0.00 0.00 78 1009.2
20260905011620 29 227 0.0 0.0 0.00 0.00 0.00 77 1008.7
20260905010625 30 227 0.0 0.0 0.00 0.00 0.00 77 1008.7
20260905010123 30 227 0.0 0.0 0.00 0.00 0.00 77 1008.7
20260905005619 30 227 0.0 0.0 0.00 0.00 0.00 77 1008.7
20260905005111 30 227 0.0 0.0 0.00 0.00 0.00 76 1008.7
20260905004606 30 227 0.0 0.0 0.00 0.00 0.00 76 1008.7
20260905004100 30 227 0.0 0.0 0.00 0.00 0.00 75 1009.0
20260905003553 30 226 0.0 0.0 0.00 0.00 0.00 75 1009.0
20260905003308 30 229 0.0 0.0 0.00 0.00 0.00 74 1009.0
20260905002537 31 217 0.0 0.0 0.00 0.00 0.00 73 1009.0
20260905002035 31 229 0.0 0.0 0.00 0.00 0.00 73 1009.0
20260905001757 31 229 0.0 0.0 0.00 0.00 0.00 73 1009.0
20260905001024 31 224 0.0 0.0 0.00 0.00 0.00 72 1009.0
20260905000517 31 225 1.6 6.4 0.00 0.00 0.00 72 1009.0
20260905000011 31 231 3.2 8.0 0.00 0.00 0.00 71 1009.0
20260904235506 31 231 3.2 8.0 0.00 0.00 0.00 71 1009.1
20260904235000 32 244 3.2 11.3 0.00 0.00 0.00 71 1009.1
20260904234455 32 232 1.6 11.3 0.00 0.00 0.00 70 1009.1
20260904233949 32 240 0.0 9.7 0.00 0.00 0.00 70 1009.1
20260904233700 32 243 3.2 12.9 0.00 0.00 0.00 70 1009.1
20260904232937 32 245 4.8 12.9 0.00 0.00 0.00 69 1009.1
20260904232425 32 213 6.4 12.9 0.00 0.00 0.00 69 1009.1
20260904232153 32 237 6.4 12.9 0.00 0.00 0.00 69 1009.1
20260904231417 32 262 3.2 12.9 0.00 0.00 0.00 68 1009.2
20260904230911 32 235 3.2 9.7 0.00 0.00 0.00 69 1009.2
20260904230630 32 256 4.8 11.3 0.00 0.00 0.00 69 1009.2
20260904225857 32 188 6.4 12.9 0.00 0.00 0.00 69 1009.1
20260904225355 32 254 6.4 12.9 0.00 0.00 0.00 69 1009.1
20260904224850 32 225 6.4 12.9 0.00 0.00 0.00 68 1009.1
20260904224341 32 238 6.4 14.5 0.00 0.00 0.00 68 1009.1
20260904223836 33 231 6.4 14.5 0.00 0.00 0.00 67 1009.1
20260904223329 33 244 8.0 14.5 0.00 0.00 0.00 68 1009.1
20260904222824 33 238 6.4 14.5 0.00 0.00 0.00 67 1008.9
20260904222325 33 222 6.4 16.1 0.00 0.00 0.00 67 1008.9
20260904221825 33 223 6.4 16.1 0.00 0.00 0.00 68 1008.9
20260904221324 32 238 6.4 16.1 0.00 0.00 0.00 67 1009.0
20260904220825 33 215 6.4 16.1 0.00 0.00 0.00 66 1009.0
20260904220326 33 207 6.4 14.5 0.00 0.00 0.00 65 1009.0
20260904215824 33 224 9.7 20.9 0.00 0.00 0.00 65 1008.8
20260904215325 33 233 9.7 20.9 0.00 0.00 0.00 64 1008.8
20260904215052 33 257 8.0 19.3 0.00 0.00 0.00 64 1008.8
20260904214325 33 231 6.4 19.3 0.00 0.00 0.00 64 1008.8
20260904213825 33 182 6.4 16.1 0.00 0.00 0.00 65 1008.8
20260904213328 33 220 6.4 16.1 0.00 0.00 0.00 64 1008.8
20260904213053 33 235 6.4 12.9 0.00 0.00 0.00 64 1009.0
20260904212325 33 196 6.4 14.5 0.00 0.00 0.00 64 1009.0
20260904211825 33 214 6.4 17.7 0.00 0.00 0.00 65 1009.0
20260904211326 33 254 4.8 17.7 0.00 0.00 0.00 64 1009.2
20260904210824 33 138 6.4 17.7 0.00 0.00 0.00 65 1009.2
20260904210806 33 199 6.4 17.7 0.00 0.00 0.00 65 1009.2
20260904205825 33 196 6.4 16.1 0.00 0.00 0.00 65 1009.5
20260904205324 33 229 6.4 16.1 0.00 0.00 0.00 65 1009.5
20260904204824 33 218 6.4 16.1 0.00 0.00 0.00 65 1009.5
20260904204322 33 217 6.4 19.3 0.00 0.00 0.00 65 1009.5
20260904203821 33 219 6.4 19.3 0.00 0.00 0.00 65 1009.5
20260904203316 33 192 6.4 16.1 0.00 0.00 0.00 65 1009.5
20260904202810 33 209 6.4 16.1 0.00 0.00 0.00 66 1009.7
20260904202306 33 182 6.4 11.3 0.00 0.00 0.00 65 1009.7
20260904201755 33 186 4.8 11.3 0.00 0.00 0.00 66 1009.7
20260904201250 33 188 4.8 14.5 0.00 0.00 0.00 66 1009.8
20260904201226 33 234 3.2 14.5 0.00 0.00 0.00 65 1009.8
20260904200507 33 227 4.8 16.1 0.00 0.00 0.00 66 1009.8
20260904195733 33 152 3.2 16.1 0.00 0.00 0.00 66 1010.0
20260904195222 33 217 3.2 14.5 0.00 0.00 0.00 65 1010.0
20260904194720 33 181 1.6 14.5 0.00 0.00 0.00 65 1010.0
20260904194216 33 246 1.6 12.9 0.00 0.00 0.00 65 1010.3
20260904193710 33 233 1.6 9.7 0.00 0.00 0.00 65 1010.3
20260904193203 32 146 0.0 4.8 0.00 0.00 0.00 65 1010.3
20260904192652 32 172 1.6 11.3 0.00 0.00 0.00 66 1010.5
20260904192417 32 155 3.2 12.9 0.00 0.00 0.00 66 1010.5
20260904191645 32 111 3.2 12.9 0.00 0.00 0.00 65 1010.5
20260904191138 32 165 3.2 12.9 0.00 0.00 0.00 68 1010.8
20260904190632 31 109 1.6 12.9 0.00 0.00 0.00 68 1010.8
20260904190126 31 204 4.8 14.5 0.00 0.00 0.00 69 1010.8
20260904185620 31 92 3.2 14.5 0.00 0.00 0.00 68 1011.0
20260904185331 31 162 1.6 9.7 0.00 0.00 0.00 70 1011.0
20260904184609 31 116 3.2 16.1 0.00 0.00 0.00 70 1011.0
20260904184104 30 90 6.4 17.7 0.00 0.00 0.00 70 1011.4
20260904183557 30 106 6.4 17.7 0.00 0.00 0.00 71 1011.4
20260904183051 30 106 6.4 14.5 0.00 0.00 0.00 73 1011.4
20260904182541 30 92 6.4 17.7 0.00 0.00 0.00 72 1011.6
20260904182039 30 342 6.4 17.7 0.00 0.00 0.00 72 1011.6
20260904181757 30 77 6.4 19.3 0.00 0.00 0.00 75 1011.6
20260904181026 30 136 8.0 19.3 0.00 0.00 0.00 73 1011.9
20260904180519 30 86 8.0 16.1 0.00 0.00 0.00 74 1011.9
20260904180500 29 150 6.4 16.1 0.00 0.00 0.00 74 1011.9
20260904175510 29 97 4.8 16.1 0.00 0.00 0.00 76 1012.4
20260904174958 28 141 6.4 19.3 0.00 0.00 0.00 78 1012.4
20260904174455 28 79 9.7 20.9 0.00 0.00 0.00 78 1012.4
20260904173950 28 80 9.7 20.9 0.00 0.00 0.00 77 1012.4
20260904173444 28 52 9.7 20.9 0.00 0.00 0.00 78 1012.4
20260904172939 28 333 9.7 24.1 0.00 0.00 0.00 77 1012.4
20260904172429 29 22 11.3 24.1 0.00 0.00 0.00 76 1012.4
20260904172150 29 67 11.3 24.1 0.00 0.00 0.00 75 1012.4
20260904171409 29 15 9.7 25.7 0.00 0.00 0.00 74 1012.7
20260904170904 29 39 9.7 25.7 0.00 0.00 0.00 74 1012.7
20260904170405 29 32 11.3 24.1 0.00 0.00 0.00 74 1012.7
20260904165904 30 91 9.7 22.5 0.00 0.00 0.00 73 1012.5
20260904165401 30 63 9.7 20.9 0.00 0.00 0.00 75 1012.5
20260904165344 30 22 11.3 22.5 0.00 0.00 0.00 74 1012.5
20260904164401 30 67 9.7 22.5 0.00 0.00 0.00 73 1012.4
20260904163903 30 82 9.7 19.3 0.00 0.00 0.00 73 1012.4
20260904163404 30 55 9.7 20.9 0.00 0.00 0.00 73 1012.4
20260904163123 30 43 8.0 20.9 0.00 0.00 0.00 73 1012.2
20260904162400 30 35 6.4 16.1 0.00 0.00 0.00 72 1012.2
20260904161856 30 24 8.0 25.7 0.00 0.00 0.00 73 1012.2
20260904161348 30 31 8.0 25.7 0.00 0.00 0.00 71 1011.9
20260904160842 31 41 3.2 16.1 0.00 0.00 0.00 68 1011.9
20260904160336 31 65 3.2 9.7 0.00 0.00 0.00 67 1011.9
20260904155831 31 349 3.2 11.3 0.00 0.00 0.00 67 1011.9
20260904155542 31 311 3.2 11.3 0.00 0.00 0.00 68 1011.9
20260904154820 30 88 3.2 14.5 0.00 0.00 0.00 70 1011.9
20260904154312 30 54 4.8 14.5 0.00 0.00 0.00 70 1011.7
20260904154026 30 51 4.8 14.5 0.00 0.00 0.00 70 1011.7
20260904153301 30 9 4.8 12.9 0.00 0.00 0.00 71 1011.7
20260904152756 30 350 4.8 12.9 0.00 0.00 0.00 70 1011.5
20260904152249 30 46 3.2 9.7 0.00 0.00 0.00 70 1011.5
20260904151739 30 23 4.8 11.3 0.00 0.00 0.00 71 1011.5
20260904151453 30 342 3.2 11.3 0.00 0.00 0.00 71 1011.4
20260904150730 30 348 3.2 8.0 0.00 0.00 0.00 71 1011.4
20260904150226 30 316 1.6 8.0 0.00 0.00 0.00 72 1011.4
20260904145719 30 32 1.6 6.4 0.00 0.00 0.00 72 1011.5
20260904145206 29 301 3.2 9.7 0.00 0.00 0.00 73 1011.5
20260904144925 29 342 4.8 14.5 0.00 0.00 0.00 73 1011.5
20260904144201 29 5 4.8 14.5 0.00 0.00 0.00 74 1011.3
20260904143655 28 325 3.2 9.7 0.00 0.00 0.00 74 1011.3
20260904143155 28 250 4.8 11.3 0.00 0.00 0.00 75 1011.3
20260904142914 28 242 6.4 17.7 0.00 0.00 0.00 75 1011.2
20260904142150 28 265 6.4 17.7 0.00 0.00 0.00 75 1011.2
20260904141649 28 217 4.8 11.3 0.00 0.00 0.00 75 1011.2
20260904141149 28 287 3.2 11.3 0.00 0.00 0.00 75 1011.2
20260904140649 27 237 3.2 8.0 0.00 0.00 0.00 77 1011.2
20260904140413 27 229 3.2 8.0 0.00 0.00 0.00 77 1011.2
20260904135646 27 229 3.2 8.0 0.00 0.00 0.00 78 1011.2
20260904135144 27 248 3.2 8.0 0.00 0.00 0.00 79 1011.2
20260904134905 26 227 3.2 6.4 0.00 0.00 0.00 81 1011.2
20260904134409 26 221 1.6 6.4 0.00 0.00 0.00 80 1011.3
20260904133645 26 223 1.6 6.4 0.00 0.00 0.00 81 1011.3
20260904133144 26 213 0.0 4.8 0.00 0.00 0.00 81 1011.3
20260904132645 26 140 0.0 1.6 0.00 0.00 0.00 83 1011.3
20260904132145 25 140 0.0 1.6 0.00 0.00 0.00 83 1011.3
20260904131643 25 139 0.0 0.0 0.00 0.00 0.00 84 1011.3
20260904131144 25 177 0.0 0.0 0.00 0.00 0.00 84 1010.9
20260904130637 25 180 0.0 0.0 0.00 0.00 0.00 85 1010.9
20260904130127 25 219 0.0 4.8 0.00 0.00 0.00 85 1010.9
20260904125627 25 221 1.6 6.4 0.00 0.00 0.00 85 1010.5
20260904125128 25 221 1.6 6.4 0.00 0.00 0.00 86 1010.5
20260904124626 24 212 3.2 6.4 0.00 0.00 0.00 86 1010.5
20260904124126 24 227 3.2 8.0 0.00 0.00 0.00 86 1010.2
20260904123631 24 223 3.2 8.0 0.00 0.00 0.00 87 1010.2
20260904123127 24 229 3.2 8.0 0.00 0.00 0.00 87 1010.2
20260904122626 23 230 1.6 4.8 0.00 0.00 0.00 87 1010.0
20260904122127 23 213 0.0 3.2 0.00 0.00 0.00 88 1010.0
20260904121621 23 212 0.0 3.2 0.00 0.00 0.00 88 1010.0
20260904121116 23 213 0.0 3.2 0.00 0.00 0.00 88 1009.8
20260904120609 23 213 0.0 3.2 0.00 0.00 0.00 88 1009.8
20260904120104 23 215 0.0 1.6 0.00 0.00 0.00 88 1009.8
20260904115553 23 215 0.0 3.2 0.00 0.00 0.00 88 1009.7
20260904115317 23 215 1.6 3.2 0.00 0.00 0.00 88 1009.7
20260904114545 23 193 0.0 3.2 0.00 0.00 0.00 87 1009.7
20260904114040 23 180 0.0 3.2 0.00 0.00 0.00 87 1009.6
20260904113533 23 219 1.6 3.2 0.00 0.00 0.00 87 1009.6
20260904113026 23 219 1.6 6.4 0.00 0.00 0.00 87 1009.6
20260904113008 23 211 3.2 9.7 0.00 0.00 0.00 87 1009.2
20260904112011 23 214 4.8 9.7 0.00 0.00 0.00 87 1009.2
20260904111509 23 220 4.8 9.7 0.00 0.00 0.00 87 1009.2
20260904111004 23 215 4.8 11.3 0.00 0.00 0.00 87 1009.2
20260904110458 23 218 6.4 11.3 0.00 0.00 0.00 87 1009.2
20260904105951 23 235 6.4 12.9 0.00 0.00 0.00 87 1009.2
20260904105441 23 208 6.4 12.9 0.00 0.00 0.00 87 1009.2
20260904104938 23 191 6.4 12.9 0.00 0.00 0.00 87 1009.2
20260904104433 23 239 6.4 12.9 0.00 0.00 0.00 87 1009.2
20260904103926 23 247 6.4 12.9 0.00 0.00 0.00 87 1009.2
20260904103421 23 229 6.4 12.9 0.00 0.00 0.00 87 1009.2
20260904102910 23 201 6.4 12.9 0.00 0.00 0.00 88 1009.5
20260904102409 23 200 4.8 12.9 0.00 0.00 0.00 88 1009.5
20260904101902 23 210 4.8 12.9 0.00 0.00 0.00 88 1009.5
20260904101840 24 225 3.2 9.7 0.00 0.00 0.00 88 1009.7
20260904101113 24 213 3.2 9.7 0.00 0.00 0.00 87 1009.7
20260904100610 24 209 3.2 8.0 0.00 0.00 0.00 87 1009.7
20260904095550 24 234 3.2 6.4 0.00 0.00 0.00 87 1009.7
20260904094826 24 194 1.6 6.4 0.00 0.00 0.00 87 1009.7
20260904094320 24 215 3.2 6.4 0.00 0.00 0.00 87 1009.8
20260904093814 24 217 1.6 4.8 0.00 0.00 0.00 87 1009.8
20260904093309 24 209 1.6 4.8 0.00 0.00 0.00 87 1009.8
20260904092858 24 209 0.0 3.2 0.00 0.00 0.00 86 1010.1
20260904091803 24 217 1.6 4.8 0.00 0.00 0.00 87 1010.1
20260904091304 24 200 1.6 6.4 0.00 0.00 0.00 86 1010.1
20260904091023 24 196 3.2 6.4 0.00 0.00 0.00 86 1010.1
20260904090303 24 201 3.2 6.4 0.00 0.00 0.00 86 1010.1
20260904085801 25 219 3.2 6.4 0.00 0.00 0.00 86 1010.1
20260904085530 25 230 3.2 6.4 0.00 0.00 0.00 86 1010.1
20260904084800 25 227 3.2 6.4 0.00 0.00 0.00 86 1010.1
20260904084259 25 225 1.6 6.4 0.00 0.00 0.00 86 1009.8
20260904084022 25 216 1.6 6.4 0.00 0.00 0.00 86 1009.8
20260904083302 25 223 1.6 6.4 0.00 0.00 0.00 86 1009.8
20260904082758 25 232 1.6 8.0 0.00 0.00 0.00 86 1009.5
20260904082244 25 221 3.2 8.0 0.00 0.00 0.00 86 1009.5
20260904081951 25 219 3.2 9.7 0.00 0.00 0.00 86 1009.5
20260904081221 25 217 4.8 9.7 0.00 0.00 0.00 86 1009.3
20260904081154 25 225 3.2 9.7 0.00 0.00 0.00 86 1009.3
20260904080158 25 234 3.2 9.7 0.00 0.00 0.00 86 1009.3
20260904075644 25 154 3.2 8.0 0.00 0.00 0.00 86 1009.2
20260904075401 25 217 3.2 8.0 0.00 0.00 0.00 86 1009.2
20260904074636 25 210 4.8 8.0 0.00 0.00 0.00 86 1009.2
20260904074131 25 174 4.8 12.9 0.00 0.00 0.00 86 1009.3
20260904073621 25 227 4.8 9.7 0.00 0.00 0.00 86 1009.3
20260904073338 25 231 4.8 9.7 0.00 0.00 0.00 86 1009.3
20260904072612 25 214 4.8 9.7 0.00 0.00 0.00 86 1009.4
20260904072106 25 218 4.8 9.7 0.00 0.00 0.00 86 1009.4
20260904071828 26 220 4.8 9.7 0.00 0.00 0.00 85 1009.4
20260904071055 26 205 3.2 8.0 0.00 0.00 0.00 85 1009.7
20260904070545 26 213 4.8 8.0 0.00 0.00 0.00 85 1009.7
20260904070039 26 238 4.8 9.7 0.00 0.00 0.00 85 1009.7
20260904065528 26 211 4.8 9.7 0.00 0.00 0.00 84 1009.9
20260904065026 26 231 4.8 11.3 0.00 0.00 0.00 84 1009.9
20260904064519 26 234 3.2 11.3 0.00 0.00 0.00 84 1009.9
20260904064014 26 182 4.8 8.0 0.00 0.00 0.00 84 1010.2
20260904063509 26 238 4.8 8.0 0.00 0.00 0.00 84 1010.2
20260904062957 26 168 3.2 11.3 0.00 0.00 0.00 84 1010.2
20260904062457 26 150 3.2 11.3 0.00 0.00 0.00 84 1010.3
20260904062211 26 160 1.6 6.4 0.00 0.00 0.00 84 1010.3
20260904061705 26 177 0.0 6.4 0.00 0.00 0.00 84 1010.3
20260904060937 26 184 1.6 8.0 0.00 0.00 0.00 84 1010.3
20260904060427 26 190 1.6 8.0 0.00 0.00 0.00 84 1010.3
20260904055927 26 198 1.6 4.8 0.00 0.00 0.00 84 1010.5
20260904055420 26 197 1.6 6.4 0.00 0.00 0.00 84 1010.5
20260904054914 26 196 1.6 6.4 0.00 0.00 0.00 84 1010.5
20260904054408 26 202 0.0 0.0 0.00 0.00 0.00 84 1010.3
20260904053901 26 192 0.0 0.0 0.00 0.00 0.00 84 1010.3
20260904053358 26 191 0.0 0.0 0.00 0.00 0.00 84 1010.3